Tracking 31027 objects as of 19-Jul-2025
HD Live streaming from Space Station
objects crossing your sky now

BREEZE-M DEB (TANK)

Track BREEZE-M DEB (TANK) now!
10-day predictions


NORAD ID: 44627
Int'l Code: 2019-067D
Perigee: 367.6 km
Apogee: 18,701.0 km
Inclination: 50.4 °
Period: 332.7 minutes
Semi major axis: 15905 km
RCS: Unknown
Launch date: October 9, 2019
Source: Commonwealth of Independent States (former USSR) (CIS)
Launch site: TYURATAM MISSILE AND SPACE COMPLEX (TTMTR)

Note: This is SATELLITE DEBRIS
Your satellite tracking list
STARLINK-1578
Track 1 satellite(s)




NASA's NSSDC Master Catalog

Two Line Element Set (TLE):
1 44627U 19067D   25198.98726167  .00001565  00000-0  96702-3 0  9991
2 44627  50.4216  57.0305 5763286  66.2883 342.7294  4.32802082 89404
Source of the keplerian elements: AFSPC